sat.trackr.live / text

‹ back to catalog

HULIANWANG DIGUI-107

NORAD 66917 · 2025-285C

PAYLOAD ACTIVE UNKNOWN

§ Identity

Operator
Country
PRC
Launch date
2025-12-06
Launch site
WSC
Launch vehicle
Mass (kg)
RCS (m²)

External: N2YO · Heavens-Above · Gunter

§ Orbital elements

Epoch: 2026-09-20T04:27:54.820224Z

Period
108.33 min
Inclination
50.0022°
Eccentricity
0.0000091
Mean motion
13.29327597 rev/d
Perigee alt
1,149.2 km
Apogee alt
1,149.4 km
Semi-major
7,527.4 km
B*
3.9390e-5
RAAN
165.3114°
Arg perigee
262.3653°
Mean anomaly
97.7209°
Rev number
3,869

§ Raw data

HULIANWANG DIGUI-1071 66917U 25285C   26263.18605116 -.00000106  00000+0  39390-4 0  99932 66917  50.0022 165.3114 0000091 262.3653  97.7209 13.29327597 38696

JSON: /api/v1/satellites/66917 · /tle

For live sub-satellite position, see the globe view (requires WebGL).

§ Visibility from observer

Set your observer location to see the next 7 days of passes ≥ 10°. The values pass through the URL so the page stays shareable.

No JS? Fill the form by hand. The geolocation button needs JavaScript.